Location: *
(49.8952°N, 11.8980°E)
Time: 18:22:17
(UTC+00:00)

Daily predictions for brighter satellites

Satellite Brightness Start Highest point End
(mag) Time Altitude Azimuth Time Altitude Azimuth Time Altitude Azimuth
Cosmos 1818 3.8 17:08:32 10° NW 17:14:04 83° SW 17:19:31 10° SE
Timation 1 Rocket 4.4 17:12:07 10° NNW 17:18:08 85° ENE 17:24:07 10° SSE
CZ-4B R/B 4.5 17:13:14 10° S 17:18:41 49° W 17:24:07 10° NNW
COSMO-SKYMED 1 2.6 17:14:37 10° NNE 17:18:57 62° ESE 17:23:15 10° S
Cosmos 1656 3.8 17:14:50 10° SSW 17:20:23 85° WNW 17:25:53 10° NNE
YAOGAN 1 2.9 17:16:50 10° SE 17:20:58 46° ENE 17:25:07 10° N
Cosmos 1515 Rocket 3.8 17:16:33 10° NNW 17:20:58 77° W 17:25:23 10° S
Okean-O 2.9 17:17:41 10° SE 17:21:55 46° ENE 17:26:11 10° N
Helios 1A Rocket 3.7 17:18:53 10° SE 17:22:29 30° ENE 17:26:03 10° N
Cosmos 1500 Rocket 3.6 17:18:25 10° S 17:22:39 54° E 17:26:54 10° NNE
Cosmos 1980 Rocket 2.9 17:18:57 10° SSE 17:23:56 33° ESE 17:28:58 10° NE
SL-4 R/B 2.3 17:21:03 10° SW 17:24:26 39° SSE 17:27:41 10° E
Lacrosse 5 rocket 1.8 17:24:44 10° WNW 17:29:12 70° SW 17:33:26 10° SE
CSL-04 DEB 4.3 17:25:50 10° NNE 17:29:46 72° ESE 17:33:42 10° S
FALCON 9 DEB 4.4 17:28:07 10° SSW 17:30:40 23° SE 17:32:59 11° E
Sich 1 3.9 17:28:23 10° SSE 17:32:09 29° E 17:35:57 10° NNE
Cosmos 44 3.6 17:28:01 10° NW 17:33:29 87° WSW 17:38:55 10° SE
Cosmos 1452 Rocket 3.5 17:28:44 10° SSW 17:33:58 74° ESE 17:39:13 10° NNE
Cosmos 2082 3.9 17:28:37 10° NNW 17:34:15 78° WSW 17:39:51 10° SSE
CZ-4B R/B 1.1 17:33:49 10° NNE 17:36:52 89° NW 17:39:54 10° SSW
SJ-11-01 4.3 17:35:20 10° SSE 17:39:56 65° ENE 17:44:37 10° N
Cosmos 1707 Rocket 4.1 17:36:58 10° N 17:41:04 36° ENE 17:45:07 10° SE
Cosmos 1867 4.2 17:36:42 10° S 17:41:33 35° ESE 17:46:28 10° NE
Cosmos 1741 Rocket 4.3 17:37:14 10° NNW 17:42:36 77° WSW 17:47:54 10° SSE
Cosmos 1437 3.2 17:43:25 10° N 17:46:04 30° ENE 17:48:40 10° SE
Cosmos 1697 Rocket 2.7 17:42:22 10° SSW 17:48:01 86° ESE 17:53:44 10° NNE
Cosmos 1633 Rocket 4.1 17:44:46 10° SE 17:48:14 23° E 17:51:43 10° NE
ERS-2 2.4 17:45:22 10° NNE 17:48:54 45° E 17:52:24 10° S
USA 234 3.5 17:42:34 10° ENE 17:48:55 51° SE 17:55:15 10° SSW
Cosmos 2360 4.2 17:43:20 10° SSW 17:49:00 73° ESE 17:54:44 10° NNE
MOS 1 Rocket 3.9 17:45:19 10° N 17:50:04 65° WNW 17:55:06 10° SSW
Cosmos 1110 Rocket 4.2 17:46:03 10° S 17:51:11 51° ESE 17:56:21 10° NNE
SL-16 R/B 3.5 17:49:32 10° SE 17:53:07 17° E 17:55:08 15° ENE
IRS-1C Rocket 4.5 17:48:02 10° S 17:53:17 69° WSW 17:58:34 10° NNW
PSLV R/B 3.8 17:53:39 10° NNE 17:57:47 68° ESE 18:01:52 10° S
SAR-Lupe-4 3.6 17:54:36 10° NNE 17:58:08 52° ESE 18:01:37 10° S
NOSS 2-1 (E) 4.2 17:53:40 10° NW 17:58:33 87° NE 18:05:29 10° SE
Cosmos 2369 3.7 17:54:14 10° SSW 17:59:53 84° ESE 18:05:37 10° NNE
USA 305 3.4 17:56:37 10° SSW 18:00:39 41° SE 18:03:06 20° E
Nadezhda 3 Rocket 4.4 17:56:12 10° N 18:02:09 41° ENE 18:08:06 10° SE
Cosmos 1607 4.3 17:57:46 10° SW 18:04:12 73° NW 18:10:44 10° NE
SeaSat 1 2.4 17:59:47 10° NNE 18:04:45 75° ESE 18:09:40 10° SSW
Ariane Rocket 3.8 18:03:13 17° ESE 18:06:18 30° ENE 18:10:42 10° N
Resurs 01 Rocket 3.5 18:07:04 14° NE 18:07:04 14° NE 18:08:58 10° NNE
CZ-4 R/B 2.2 18:03:23 10° S 18:07:08 52° W 18:10:56 10° NNW
Cosmos 2263 Rocket 2.1 18:02:36 10° NNW 18:08:11 68° ENE 18:13:43 10° SE
USA 307 3.3 18:04:22 10° SW 18:08:26 44° SE 18:10:33 24° E
Cosmos 2074 Rocket 4.0 18:07:25 10° S 18:13:33 59° E 18:19:42 10° NNE
FALCON 9 DEB 3.4 18:11:37 10° SW 18:14:39 43° SSE 18:15:24 35° ESE
USA 306 3.2 18:10:39 10° SW 18:14:47 50° SE 18:16:45 27° E
SAR-Lupe-1 4.0 18:12:32 10° NNE 18:16:08 87° E 18:19:44 10° SSW
USA 308 3.1 18:14:31 10° SW 18:18:40 51° SE 18:20:27 30° E
Cosmos 1470 Rocket 4.4 18:20:13 28° E 18:20:13 28° E 18:24:00 10° NNE
Cosmos 1515 4.1 18:17:30 10° N 18:21:09 40° ENE 18:22:18 31° ESE
Cosmos 1805 Rocket 3.8 18:16:55 10° SSW 18:21:16 73° W 18:25:41 10° N
Meteor 1-27 Rocket 4.4 18:19:26 10° NNW 18:24:51 57° W 18:30:14 10° S
Cosmos 2184 Rocket 3.9 18:20:03 10° S 18:26:09 69° E 18:32:19 10° NNE
H-2A R/B 3.2 18:21:43 10° S 18:26:56 48° W 18:32:14 10° NNW
Meteor 2-4 Rocket 4.3 18:22:16 10° N 18:27:33 36° ENE 18:29:44 27° ESE
ARGOS 3.6 18:22:17 10° S 18:27:40 65° WSW 18:33:05 10° NNW
USA 186 3.8 18:29:49 11° N 18:29:49 11° N 18:29:57 10° N
SJ-6B 3.1 18:28:39 31° SE 18:30:11 48° ENE 18:34:09 10° N
Cosmos 1271 Rocket 2.6 18:26:59 10° NNW 18:30:45 82° W 18:34:29 10° S
OBJECT-B 2.1 18:32:13 26° NNE 18:32:13 26° NNE 18:34:05 10° N
COSMOS 2455 3.5 18:25:48 10° NW 18:31:41 56° WSW 18:37:31 10° SSE
Cosmos 2278 3.7 18:26:35 10° SSW 18:32:16 87° WNW 18:38:01 10° NNE
SL-08 RB Rocket 3.8 18:27:59 10° S 18:32:28 74° WSW 18:37:01 10° NNW
Meteor 1-18 Rocket 4.3 18:26:43 10° N 18:32:36 59° ENE 18:38:04 12° SSE
FALCON 9 DEB 2.8 18:30:11 10° SW 18:33:20 64° SSE 18:33:29 62° SE
Meteor 1-25 Rocket 4.2 18:29:03 10° S 18:34:47 67° E 18:40:30 10° NNE
GP-B 3.3 18:33:07 27° SE 18:35:11 46° E 18:39:26 10° N
CZ-2C R/B 2.6 18:31:28 10° NNE 18:37:06 84° ESE 18:42:33 10° SSW
Cosmos 1689 Rocket 3.5 18:34:41 10° N 18:37:23 37° WNW 18:40:04 10° SW
Okean 1 3.2 18:33:29 10° N 18:37:28 61° ENE 18:38:49 38° SE
Cosmos 1461 4.0 18:33:46 10° S 18:37:23 32° SE 18:37:23 32° SE
MetOp-A 4.0 18:32:58 10° SSE 18:38:18 74° ENE 18:43:40 10° NNW
Cosmos 1602 3.7 18:35:11 10° S 18:38:59 57° E 18:42:50 10° NNE
Cosmos 44 Rocket 3.8 18:34:39 10° NNW 18:39:44 48° NE 18:41:15 37° E
FALCON 9 DEB 3.6 18:36:38 10° WNW 18:39:59 48° N 18:40:27 44° NNE
Cosmos 1862 Rocket 3.5 18:37:55 10° N 18:42:27 77° E 18:45:36 19° SSE
Cosmos 1666 Rocket 3.4 18:38:48 10° S 18:43:09 89° W 18:47:32 10° N
Cosmos 2278 Rocket 4.1 18:40:44 10° N 18:43:32 14° NNE 18:44:39 13° NE
ATLAS 5 CENTAUR R/B 3.6 18:30:57 10° WSW 18:43:47 58° NW 18:46:35 20° NE
Cosmos 2084 3.7 18:39:39 10° SW 18:43:52 67° NW 18:46:18 25° NE
BREEZE-M DEB (TANK) 1.8 18:43:40 10° W 18:46:00 82° S 18:46:16 71° ESE
Cosmos 1844 Rocket 3.3 18:41:03 10° NNW 18:46:12 36° NE 18:47:04 34° ENE
Meteor 2-12 Rocket 4.4 18:41:04 10° SSE 18:46:57 55° E 18:52:52 10° NNE
Cosmos 1331 Rocket 4.4 18:42:14 10° SSW 18:47:29 66° WNW 18:52:44 10° NNE
Gbstr 26 Del rocket 3.4 18:43:40 10° SW 18:48:09 60° SSE 18:49:30 44° E
Cosmos 1486 Rocket 3.9 18:42:58 10° NNW 18:48:15 70° ENE 18:50:25 36° SE
CSL-04 Rocket 4.5 18:42:54 10° S 18:48:21 54° W 18:53:47 10° NNW
Cosmos 2341 Rocket 4.4 18:46:42 28° SE 18:49:19 40° E 18:55:07 10° NNE
Resurs 1-3 3.9 18:50:32 45° ENE 18:50:32 45° ENE 18:54:30 10° N
SPOT 3 Rocket 4.1 18:53:33 38° ENE 18:53:33 38° ENE 18:58:20 10° N
FALCON 9 DEB 3.8 18:54:37 10° WSW 18:56:59 47° WSW 18:56:59 47° WSW
SL-4 R/B 2.1 19:00:21 10° W 19:03:19 58° WNW 19:03:19 58° WNW
FALCON 9 DEB 4.3 19:03:05 10° WSW 19:05:10 38° WSW 19:05:10 38° WSW
APEX 4.2 19:03:38 10° NW 19:05:43 34° WNW 19:05:43 34° WNW
Lacrosse 5 rocket 4.1 19:05:20 10° W 19:07:37 14° WSW 19:09:52 10° SSW
Cosmos 1980 Rocket 3.1 19:02:16 10° SW 19:07:46 50° NW 19:13:19 10° NNE
Cosmos 1354 Rocket 4.1 19:03:52 10° NNW 19:09:04 55° ENE 19:09:06 55° ENE
Cosmos 2084 Rocket 4.0 19:09:22 10° NW 19:12:58 48° N 19:12:58 48° N
Cosmos 1302 Rocket 4.1 19:10:20 10° SSW 19:15:30 72° WNW 19:20:44 10° NNE
Cosmos 2322 Rocket 2.9 19:11:31 10° S 19:15:03 38° S 19:15:03 38° S
Cosmos 968 Rocket 3.8 19:11:51 10° NNW 19:17:04 64° WSW 19:19:11 35° S
Meteor 1-17 Rocket 4.5 19:12:51 10° S 19:18:19 70° E 19:23:50 10° NNE
Cosmos 1503 Rocket 3.8 19:18:31 10° NNW 19:23:43 80° ENE 19:23:43 80° ENE
Cosmos 1867 4.2 19:19:40 10° WSW 19:25:00 53° NW 19:28:07 24° NNE
Cosmos 1633 Rocket 4.3 19:21:35 10° SW 19:25:47 42° WNW 19:30:01 10° N
USA 234 3.4 19:29:23 37° NE 19:32:08 71° NNW 19:38:38 10° WSW
SJ 16-02 3.9 19:31:26 10° N 19:31:50 11° N 19:31:50 11° N
Terra 4.3 19:37:35 11° NNE 19:37:35 11° NNE 19:37:44 10° NNE
SL-16 R/B 2.1 19:30:46 10° SSW 19:36:27 87° WNW 19:37:13 68° NNE
USA 305 4.0 19:36:16 10° W 19:39:14 42° W 19:39:14 42° W
Resurs 01 Rocket 3.0 19:44:38 32° NNW 19:44:38 32° NNW 19:47:03 10° NNW
Ariane Rocket 3.9 19:43:24 34° SW 19:45:04 46° W 19:50:00 10° NNW
USA 307 4.4 19:44:08 10° W 19:46:43 35° W 19:46:43 35° W
Okean 1-7 4.5 19:44:22 10° NNW 19:46:54 33° NNW 19:46:54 33° NNW
Cosmos 2263 Rocket 4.3 19:47:22 10° NW 19:51:36 22° WSW 19:55:48 10° SSW
OBJECT-B 4.3 20:05:17 11° NW 20:05:17 11° NW 20:05:36 10° NW
USA 281 4.1 20:22:43 38° NNE 20:22:43 38° NNE 20:27:10 10° NNW
Cosmos 2278 Rocket 3.9 20:23:50 10° NNW 20:26:31 26° N 20:26:31 26° N
Cosmos 1844 Rocket 3.9 20:24:55 10° NW 20:28:45 38° WNW 20:28:45 38° WNW
USA 234 4.4 21:16:44 37° NW 21:16:44 37° NW 21:20:57 10° WNW
